This is the latest recevied weather packets stored in our database for station/object KE5QKR. If no packets are shown the sender has not sent any weather packets the latest 10 day(s).
| Time | Temp. | Humidity | Pressure | Rain* | Wind** | Luminosity | Snow |
|---|---|---|---|---|---|---|---|
| 1777996956 | 25° C | 72% | 1012.2 hPa | 0 mm | - | 442 W/m² | - |
| 1777996652 | 25° C | 73% | 1012.2 hPa | 0 mm | - | 250 W/m² | - |
| 1777996348 | 25.56° C | 72% | 1012.1 hPa | 0 mm | - | 246 W/m² | - |
| 1777996045 | 26.11° C | 72% | 1012.2 hPa | 0 mm | - | 465 W/m² | - |
| 1777995741 | 26.67° C | 71% | 1012.3 hPa | 0 mm | - | 582 W/m² | - |
| 1777995438 | 26.11° C | 71% | 1012.3 hPa | 0 mm | - | 692 W/m² | - |
| 1777995135 | 25.56° C | 72% | 1012 hPa | 0 mm | - | 564 W/m² | - |
| 1777994832 | 25.56° C | 71% | 1012.2 hPa | 0 mm | - | 514 W/m² | - |
| 1777994528 | 25.56° C | 73% | 1012.1 hPa | 0 mm | - | 630 W/m² | - |
| 1777994223 | 25° C | 75% | 1012.1 hPa | 0 mm | - | 569 W/m² | - |
| 1777993921 | 25° C | 75% | 1012.3 hPa | 0 mm | - | 497 W/m² | - |
| 1777993617 | 25° C | 75% | 1012.2 hPa | 0 mm | - | 375 W/m² | - |
| 1777993314 | 24.44° C | 75% | 1012.1 hPa | 0 mm | - | 477 W/m² | - |
| 1777993009 | 24.44° C | 77% | 1012.3 hPa | 0 mm | - | 441 W/m² | - |
| 1777992708 | 25° C | 76% | 1012.3 hPa | 0 mm | - | 281 W/m² | - |
| 1777992405 | 24.44° C | 77% | 1012.3 hPa | 0 mm | - | 339 W/m² | - |
| 1777992103 | 24.44° C | 75% | 1012.3 hPa | 0 mm | - | 293 W/m² | - |
| 1777991800 | 24.44° C | 77% | 1012.4 hPa | 0 mm | - | 480 W/m² | - |
| 1777991497 | 23.89° C | 77% | 1012.2 hPa | 0 mm | - | 442 W/m² | - |
| 1777991194 | 23.33° C | 79% | 1012.3 hPa | 0 mm | - | 372 W/m² | - |
| 1777990892 | 23.89° C | 78% | 1012.3 hPa | 0 mm | - | 331 W/m² | - |
| 1777990589 | 23.33° C | 79% | 1012 hPa | 0 mm | - | 353 W/m² | - |
| 1777989982 | 23.33° C | 81% | 1012.3 hPa | 0 mm | - | 349 W/m² | - |
| 1777989679 | 23.33° C | 79% | 1012.2 hPa | 0 mm | - | 331 W/m² | - |
| 1777989375 | 22.78° C | 80% | 1012.2 hPa | 0 mm | - | 373 W/m² | - |
* Rain latest hour (hover to see other rain measurements)
** Current wind speed in m/s (hover to see current wind gust speed)